metlocid,date_time,avg_airt3m,stddev_airt3m,min_airt3m,max_airt3m,n_airt3m,avg_airt1m,stddev_airt1m,min_airt1m,max_airt1m,n_airt1m,n_comments
COHM,11/22/93,-5.8,0.356370592,-6.27,-5.31,5,,,,,0,0
COHM,11/23/93,-6.563750088,1.201617303,-8.18,-5.08,8,,,,,0,0
COHM,11/24/93,-8.754999936,0.548634619,-9.23,-7.56,8,,,,,0,0
COHM,11/25/93,-8.013749957,1.350977756,-10.4,-6.37,8,,,,,0,0
COHM,11/26/93,-7.142499983,0.676604006,-8.26,-6.08,8,,,,,0,0
COHM,11/27/93,-8.386250019,0.329152013,-8.95,-7.96,8,,,,,0,0
COHM,11/28/93,-8.285000086,0.912797942,-9.33,-7.07,8,,,,,0,0
COHM,11/29/93,-8.014999926,1.176216799,-9.72,-6.7,8,,,,,0,0
COHM,11/30/93,-7.262499988,1.076379509,-8.76,-6.2,8,,,,,0,0
COHM,12/1/93,-6.476250052,1.028882062,-7.73,-5.34,8,,,,,0,0
COHM,12/2/93,-7.108750105,1.138977484,-8.8,-5.28,8,,,,,0,0
COHM,12/3/93,-9.081666629,0.960215815,-10.31,-7.95,30,,,,,0,1
COHM,12/4/93,-10.89145837,0.315459737,-11.74,-10.09,48,,,,,0,0
COHM,12/5/93,-10.26104178,1.016510977,-11.85,-8.65,48,,,,,0,1
COHM,12/6/93,-8.676666647,1.125713615,-10.51,-6.59,48,,,,,0,0
COHM,12/7/93,-9.042083333,0.932612356,-10.91,-7.57,48,,,,,0,0
COHM,12/8/93,-8.843958398,0.608422256,-10.74,-7.71,48,,,,,0,0
COHM,12/9/93,-8.272916694,1.08313368,-11.1,-5.52,48,,,,,0,0
COHM,12/10/93,-7.605833342,1.396045858,-10.72,-5.49,48,,,,,0,0
COHM,12/11/93,-6.539791654,1.241677828,-8.74,-4.49,48,,,,,0,0
COHM,12/12/93,-8.10708341,1.371959257,-10.56,-5.95,48,,,,,0,1
COHM,12/13/93,-8.810833375,0.979947559,-10.2,-7.35,48,,,,,0,2
COHM,12/14/93,-6.791875025,1.282488746,-9.96,-4.81,48,,,,,0,0
COHM,12/15/93,-5.633958345,1.013713908,-7.04,-2.21,48,,,,,0,0
COHM,12/16/93,-1.621249995,1.419471917,-4.22,0.04,48,,,,,0,0
COHM,12/17/93,-0.970833329,0.833038104,-2.93,0.69,48,,,,,0,0
COHM,12/18/93,-2.907291671,0.481304692,-3.9,-1.53,48,,,,,0,0
COHM,12/19/93,-3.694166658,1.691192237,-7.1,-1.5,48,,,,,0,0
COHM,12/20/93,-5.913750013,1.524714986,-7.52,-2.19,48,,,,,0,0
COHM,12/21/93,-9.212708294,0.748487056,-10.61,-7.61,48,,,,,0,0
COHM,12/22/93,-6.971458266,2.625459581,-10.58,-1.13,48,,,,,0,0
COHM,12/23/93,-7.169999987,1.548675468,-10.03,-1.56,48,,,,,0,0
COHM,12/24/93,-4.738478269,1.610605093,-7.36,-1.73,46,,,,,0,0
COHM,12/25/93,-5.78624999,1.292504778,-8.94,-3.22,48,,,,,0,0
COHM,12/26/93,-4.948958332,1.313754155,-7.65,-2.01,48,,,,,0,0
COHM,12/27/93,-5.777083347,0.731323348,-6.92,-4.19,48,,,,,0,0
COHM,12/28/93,-7.07145833,0.742176167,-7.93,-5.34,48,,,,,0,0
COHM,12/29/93,-5.813750024,1.340428017,-8.37,-3.63,48,,,,,0,0
COHM,12/30/93,-3.011041661,1.42663453,-5.56,0.26,48,,,,,0,0
COHM,12/31/93,-3.553125026,0.929060739,-5.64,-1.64,48,,,,,0,0
COHM,1/1/94,-1.993125,1.556869686,-5.1,0.83,48,,,,,0,0
COHM,1/2/94,-0.405833332,1.417730928,-3.48,2.63,48,,,,,0,0
COHM,1/3/94,-2.637083324,0.516798479,-3.78,-1.51,48,,,,,0,0
COHM,1/4/94,-3.573333338,0.863459981,-5.13,-1.99,48,,,,,0,0
COHM,1/5/94,-3.450416667,0.988955954,-4.94,-0.2,48,,,,,0,0
COHM,1/6/94,-4.481041715,0.900092785,-5.88,-2.7,48,,,,,0,0
COHM,1/7/94,-2.546875008,1.532420091,-5.01,4.02,48,,,,,0,0
COHM,1/8/94,-3.939166675,1.2078147,-6.3,-1.33,48,,,,,0,0
COHM,1/9/94,-2.637499998,1.373674206,-5.13,2.61,48,,,,,0,0
COHM,1/10/94,-1.64583333,1.510609068,-4.26,2.44,48,,,,,0,0
COHM,1/11/94,-4.751041681,0.794575344,-6.58,-2.78,48,,,,,0,0
COHM,1/12/94,-1.816249983,1.344181687,-4.85,-0.06,24,,,,,0,0
COHM,1/13/94,-3.454999983,1.596965833,-5.18,-1.79,4,,,,,0,0
COHM,1/14/94,-2.24999997,1.022513204,-3.59,-1.12,4,,,,,0,0
COHM,1/15/94,-0.792500023,1.470813294,-2.7,0.74,4,,,,,0,0
COHM,1/16/94,-4.814999998,0.925400817,-6,-3.74,4,,,,,0,0
COHM,1/17/94,-4.7299999,0.232809006,-5.02,-4.45,4,,,,,0,0
COHM,1/18/94,-4.284999967,0.957303478,-5.89,-3.36,6,,,,,0,0
COHM,1/19/94,-4.171250015,1.147126018,-5.97,-3.05,8,,,,,0,0
COHM,1/20/94,-4.488749921,1.471242753,-6.81,-3.05,8,,,,,0,0
COHM,1/21/94,-4.710000008,1.296258374,-6.13,-2.52,8,,,,,0,0
COHM,1/22/94,-5.824999988,1.308051978,-8.16,-4.81,8,,,,,0,0
COHM,1/23/94,-3.841249943,2.224637551,-6.97,-1.43,8,,,,,0,0
COHM,1/24/94,-5.175000131,2.337892872,-8.42,-2.17,8,,,,,0,0
COHM,1/25/94,-5.423750013,1.250941803,-7.23,-3.16,8,,,,,0,0
COHM,1/26/94,-6.546249926,1.387875229,-8.73,-5.15,8,,,,,0,0
COHM,1/27/94,-4.845000029,0.98392803,-5.9,-3.12,8,,,,,0,0
COHM,1/28/94,-5.349999964,1.054351592,-7.11,-3.69,8,,,,,0,0
COHM,1/29/94,-10.27625,2.083108452,-12.08,-6.36,8,,,,,0,0
COHM,1/30/94,-10.87000012,1.325033474,-12.57,-9.35,8,,,,,0,0
COHM,1/31/94,-9.167500019,1.138630019,-11.28,-7.96,8,,,,,0,0
COHM,2/1/94,-9.407500029,1.994182717,-11.56,-6.64,8,,,,,0,0
COHM,2/2/94,-5.136666775,0.911061641,-6.13,-4.34,3,,,,,0,0
COHM,2/3/94,-8.097499967,1.026418823,-9.65,-6.47,8,,,,,0,0
COHM,2/4/94,-8.269999862,0.781098086,-9.65,-7.25,8,,,,,0,0
COHM,2/5/94,-9.326250017,2.06012437,-12.48,-7.58,8,,,,,0,0
COHM,2/6/94,-8.526250005,0.681195003,-9.65,-7.61,8,,,,,0,0
COHM,2/7/94,-7.741249979,2.726124649,-11,-4.23,8,,,,,0,0
COHM,2/8/94,-8.376249969,1.912044108,-12.5,-6.54,8,,,,,0,0
COHM,2/9/94,-8.488749921,1.765166312,-10.62,-5.61,8,,,,,0,0
COHM,2/10/94,-12.17875016,1.146054428,-13.94,-10.68,8,,,,,0,0
COHM,2/11/94,-11.54374993,1.852195102,-14.51,-8.89,8,,,,,0,0
COHM,2/12/94,-12.59500003,1.112397695,-15.08,-11.36,8,,,,,0,0
COHM,2/13/94,-12.41000009,2.533118023,-17.36,-10.22,8,,,,,0,0
COHM,2/14/94,-11.12750006,2.096968791,-15.07,-8.49,8,,,,,0,0
COHM,2/15/94,-13.1400001,1.801618599,-16.12,-10.61,8,,,,,0,0
COHM,2/16/94,-10.1137501,0.998083011,-11.71,-8.46,8,,,,,0,0
COHM,2/17/94,-12.6624999,0.759752969,-13.37,-11.6,4,,,,,0,0
COHM,2/18/94,-12.20249999,1.647723584,-14.39,-9.83,8,,,,,0,0
COHM,2/19/94,-14.32249987,0.817220791,-15.7,-13.1,8,,,,,0,0
COHM,2/20/94,-15.88374972,1.81294488,-18.15,-12.92,8,,,,,0,0
COHM,2/21/94,-18.62750018,1.508923267,-20.34,-15.89,8,,,,,0,0
COHM,2/22/94,-16.4937501,2.151842957,-18.94,-14.08,8,,,,,0,0
COHM,2/23/94,-17.43625021,1.240920175,-19.97,-16.1,8,,,,,0,0
COHM,2/24/94,-17.22750008,2.871603642,-20.94,-13.72,8,,,,,0,0
COHM,2/25/94,-19.22624993,1.967564921,-22.32,-15.43,8,,,,,0,0
COHM,2/26/94,-19.71749973,2.10864021,-22.66,-17.2,8,,,,,0,0
COHM,2/27/94,-20.38625002,1.663429544,-22.27,-17.5,8,,,,,0,0
COHM,2/28/94,-20.25249982,1.926964607,-22.21,-17.76,8,,,,,0,0
COHM,3/1/94,-22.75624967,1.523032169,-24.41,-20.33,8,,,,,0,0
COHM,3/2/94,-21.2412498,2.560878375,-24.6,-17.67,8,,,,,0,0
COHM,3/3/94,-21.98374987,1.674198739,-25.07,-20.11,8,,,,,0,0
COHM,3/4/94,-23.70000005,1.744501283,-25.56,-21.29,8,,,,,0,0
COHM,3/5/94,-23.41875005,2.244487971,-26.92,-20.73,8,,,,,0,0
COHM,3/6/94,-27.39875007,0.817250347,-28.91,-26.2,8,,,,,0,0
COHM,3/7/94,-27.35874987,2.696439209,-31,-23.66,8,,,,,0,0
COHM,3/8/94,-25.28125024,1.030789353,-26.99,-23.33,8,,,,,0,0
COHM,3/9/94,-20.83000016,2.124106448,-23.72,-18.33,8,,,,,0,0
COHM,3/10/94,-17.8175,2.619485834,-22.88,-15.37,8,,,,,0,0
COHM,3/11/94,-17.05249965,0.953081551,-18.39,-15.69,8,,,,,0,0
COHM,3/12/94,-16.57374978,1.632666064,-18.04,-13.82,8,,,,,0,0
COHM,3/13/94,-18.81499982,1.174503206,-20.17,-16.64,8,,,,,0,0
COHM,3/14/94,-19.86000013,1.822211833,-22.4,-17.11,8,,,,,0,0
COHM,3/15/94,-22.44499993,1.383401373,-24.39,-21.02,8,,,,,0,0
COHM,3/16/94,-24.15499997,0.783763881,-24.92,-22.66,8,,,,,0,0
COHM,3/17/94,-25.77125001,0.82066893,-27.06,-24.2,8,,,,,0,0
COHM,3/18/94,-23.35875034,2.077357345,-26.04,-20.75,8,,,,,0,0
COHM,3/19/94,-22.37999988,1.421990166,-24.63,-20.27,8,,,,,0,0
COHM,3/20/94,-25.56375003,0.801087457,-26.66,-24.08,8,,,,,0,0
COHM,3/21/94,-27.80124974,1.100109337,-29.24,-26.39,8,,,,,0,0
COHM,3/22/94,-26.46499991,1.468779733,-29.3,-24.57,8,,,,,0,0
COHM,3/23/94,-29.15500045,0.815510264,-30.12,-27.87,8,,,,,0,0
COHM,3/24/94,-26.29999995,1.472180325,-29.03,-24.47,8,,,,,0,0
COHM,3/25/94,-21.78750038,0.930203235,-23.36,-20.37,8,,,,,0,0
COHM,3/26/94,-21.08875036,1.102392738,-23.36,-19.83,8,,,,,0,0
COHM,3/27/94,-22.80375004,3.788146618,-26.9,-17.32,8,,,,,0,0
COHM,3/28/94,-18.51000023,1.594042607,-21.43,-16.38,8,,,,,0,0
COHM,3/29/94,-22.20749998,2.573889455,-24.86,-18.69,8,,,,,0,0
COHM,3/30/94,-25.62875009,0.595445478,-26.45,-24.45,8,,,,,0,0
COHM,3/31/94,-20.67374992,1.949571009,-25.02,-18.99,8,,,,,0,0
COHM,4/1/94,-17.92875016,2.068363204,-21.5,-15.8,8,,,,,0,0
COHM,4/2/94,-15.30124998,0.876020844,-16.51,-13.97,8,,,,,0,0
COHM,4/3/94,-17.22999966,1.036463744,-18.8,-15.95,8,,,,,0,0
COHM,4/4/94,-16.26874995,1.032174338,-18.65,-15.53,8,,,,,0,0
COHM,4/5/94,-20.12000012,1.112744445,-21.55,-18.34,8,,,,,0,0
COHM,4/6/94,-20.54124999,0.512122575,-21.43,-20,8,,,,,0,0
COHM,4/7/94,-16.33500004,2.396795308,-19.56,-13.13,8,,,,,0,0
COHM,4/8/94,-10.28750002,0.591070641,-11.39,-9.44,8,,,,,0,0
COHM,4/9/94,-12.50874996,0.631832502,-13.45,-11.51,8,,,,,0,0
COHM,4/10/94,-13.38,0.620897951,-14.14,-12.35,8,,,,,0,0
COHM,4/11/94,-14.24250007,0.764960199,-15.37,-13.04,8,,,,,0,0
COHM,4/12/94,-14.66125,0.746524175,-15.92,-13.88,8,,,,,0,0
COHM,4/13/94,-14.74749994,1.144274504,-16.47,-13.73,8,,,,,0,0
COHM,4/14/94,-18.88500023,1.601659916,-21.2,-16.48,8,,,,,0,0
COHM,4/15/94,-23.82749987,1.12085117,-24.81,-21.23,8,,,,,0,0
COHM,4/16/94,-26.52375007,1.264040088,-28.65,-24.92,8,,,,,0,0
COHM,4/17/94,-21.11249995,3.719611372,-27.91,-17.46,8,,,,,0,0
COHM,4/18/94,-13.55250001,1.286076498,-15.06,-11.02,8,,,,,0,0
COHM,4/19/94,-11.59124994,1.261149786,-14.52,-10.78,8,,,,,0,0
COHM,4/20/94,-17.01250005,1.740310076,-18.94,-14.79,8,,,,,0,0
COHM,4/21/94,-18.21624994,0.977576291,-19.31,-16.81,8,,,,,0,0
COHM,4/22/94,-21.72874951,1.977187252,-24.15,-19.06,8,,,,,0,0
COHM,4/23/94,-25.2562499,1.780954393,-26.56,-22.26,8,,,,,0,0
COHM,4/24/94,-23.83750033,2.291304901,-26.37,-20.2,8,,,,,0,0
COHM,4/25/94,-24.59124994,3.305274858,-28.11,-18.26,8,,,,,0,0
COHM,4/26/94,-24.8574996,2.032758458,-27.17,-21.85,8,,,,,0,0
COHM,4/27/94,-19.29750013,1.087444272,-21.23,-17.45,8,,,,,0,0
COHM,4/28/94,-21.46499991,0.648360509,-22.24,-20.6,8,,,,,0,0
COHM,4/29/94,-25.83125019,1.535665676,-27.4,-22.76,8,,,,,0,0
COHM,4/30/94,-29.34750009,1.132755856,-31.34,-27.72,8,,,,,0,0
COHM,5/1/94,-32.19750047,2.038940643,-34.08,-28.44,8,,,,,0,0
COHM,5/2/94,-26.34375,1.251832278,-27.63,-23.92,8,,,,,0,0
COHM,5/3/94,-26.59500027,0.913798781,-28.07,-25.54,8,,,,,0,0
COHM,5/4/94,-25.77625012,1.967877431,-28.44,-23.56,8,,,,,0,0
COHM,5/5/94,-25.9662497,2.612743214,-28.82,-22.49,8,,,,,0,0
COHM,5/6/94,-21.42624998,2.566859752,-25.41,-18.57,8,,,,,0,0
COHM,5/7/94,-19.68875003,1.082819161,-21.47,-18.04,8,,,,,0,0
COHM,5/8/94,-23.36749983,1.615547128,-26.75,-21.79,8,,,,,0,0
COHM,5/9/94,-23.25999999,2.181847103,-25.48,-18.6,8,,,,,0,0
COHM,5/10/94,-23.73250008,1.46939953,-25.44,-21.18,8,,,,,0,0
COHM,5/11/94,-26.48250031,1.375881228,-28.59,-24.6,8,,,,,0,0
COHM,5/12/94,-29.36374974,1.622519509,-31.68,-27.4,8,,,,,0,0
COHM,5/13/94,-31.9550004,0.899079482,-33.04,-30.65,8,,,,,0,0
COHM,5/14/94,-31.93500018,0.960759225,-33.04,-30.65,8,,,,,0,0
COHM,5/15/94,-30.33500004,1.346932934,-32.59,-28.84,8,,,,,0,0
COHM,5/16/94,-31.95125055,1.139291242,-33.27,-30.12,8,,,,,0,0
COHM,5/17/94,-33.14875007,1.620771084,-35.37,-30.88,8,,,,,0,0
COHM,5/18/94,-35.79374886,0.549699646,-36.62,-35.17,8,,,,,0,0
COHM,5/19/94,-33.85875034,2.503206452,-38.13,-31.53,8,,,,,0,0
COHM,5/20/94,-27.26500003,1.938708349,-31,-25.53,6,,,,,0,0
COHM,5/21/94,-24.55000019,2.678768194,-27.85,-19.85,8,,,,,0,0
COHM,5/22/94,-28.48374963,2.615901519,-31.38,-24.15,8,,,,,0,0
COHM,5/23/94,-26.35750008,7.688038516,-33.62,-16.81,8,,,,,0,0
COHM,5/24/94,-34.60750008,0.93964648,-36,-32.9,8,,,,,0,0
COHM,5/25/94,-33.7074995,0.91618295,-35.12,-32.56,8,,,,,0,0
COHM,5/26/94,-25.61250019,4.468649044,-31.79,-19.97,8,,,,,0,0
COHM,5/27/94,-31.32375002,1.895438126,-33.11,-28.38,8,,,,,0,0
COHM,5/28/94,-30.41499972,2.508625066,-32.61,-26.63,8,,,,,0,0
COHM,5/29/94,-33.33749962,1.076207036,-34.32,-31.71,8,,,,,0,0
COHM,5/30/94,-31.83249974,0.57900807,-32.65,-30.96,8,,,,,0,0
COHM,5/31/94,-33.23000073,1.394663149,-35.07,-30.94,8,,,,,0,0
COHM,6/1/94,-28.1712501,1.465600583,-29.55,-25.63,8,,,,,0,0
COHM,6/2/94,-31.35625029,0.812614166,-32.63,-30.06,8,,,,,0,0
COHM,6/3/94,-35.7562499,0.870762352,-36.51,-33.84,8,,,,,0,0
COHM,6/4/94,-29.00250006,2.673471967,-32.99,-24.31,8,,,,,0,0
COHM,6/5/94,-23.64625001,3.293170141,-28.44,-20.62,8,,,,,0,0
COHM,6/6/94,-20.62749982,2.321352953,-23.18,-16.66,8,,,,,0,0
COHM,6/7/94,-16.49000013,1.144539783,-17.86,-14.27,8,,,,,0,0
COHM,6/8/94,-17.67625022,1.178557919,-19.12,-15.93,8,,,,,0,0
COHM,6/9/94,-18.78750002,2.343335645,-21.92,-15.86,8,,,,,0,0
COHM,6/10/94,-19.50249994,3.259810523,-23.8,-15.2,8,,,,,0,0
COHM,6/11/94,-24.64375019,2.624755436,-28.4,-21.89,8,,,,,0,0
COHM,6/12/94,-27.78249979,1.89336951,-30.63,-25.26,8,,,,,0,0
COHM,6/13/94,-28.40375018,2.246469586,-31.24,-25.28,8,,,,,0,0
COHM,6/14/94,-31.10250068,2.369399067,-33.34,-27.22,8,,,,,0,0
COHM,6/15/94,-23.16125035,3.151232945,-26.54,-18.04,8,,,,,0,0
COHM,6/16/94,-17.66874993,1.893488139,-20.55,-15.59,8,,,,,0,0
COHM,6/17/94,-16.90500021,1.165528564,-19.15,-15.16,8,,,,,0,0
COHM,6/18/94,-15.875,3.102427545,-20.28,-12.25,8,,,,,0,0
COHM,6/19/94,-19.38500023,2.162214857,-22.95,-17.26,8,,,,,0,0
COHM,6/20/94,-21.22499967,2.066542724,-23.39,-18.2,8,,,,,0,0
COHM,6/21/94,-23.03250051,1.308507867,-24.6,-20.52,8,,,,,0,0
COHM,6/22/94,-25.87250018,0.765986827,-27.29,-25.2,8,,,,,0,0
COHM,6/23/94,-28.01749969,0.361495183,-28.44,-27.38,8,,,,,0,0
COHM,6/24/94,-26.37375021,0.748425992,-27.76,-25.38,8,,,,,0,0
COHM,6/25/94,-19.30749989,4.379839409,-25.93,-14.74,8,,,,,0,0
COHM,6/26/94,-23.63749981,2.437995308,-26.2,-18.43,8,,,,,0,0
COHM,6/27/94,-21.26249981,1.4222994,-22.77,-19.3,8,,,,,0,0
COHM,6/28/94,-24.06124973,1.281175955,-26.47,-22.8,8,,,,,0,0
COHM,6/29/94,-27.57624984,1.132669862,-28.93,-26.25,8,,,,,0,0
COHM,6/30/94,-30.02999997,0.851150471,-31.26,-28.76,8,,,,,0,0
COHM,7/1/94,-26.7925005,1.720936578,-28.61,-23.56,8,,,,,0,0
COHM,7/2/94,-20.71374989,1.729475162,-22.82,-18.46,8,,,,,0,0
COHM,7/3/94,-22.25750017,1.539097942,-23.95,-19.23,8,,,,,0,0
COHM,7/4/94,-22.56249976,1.601327536,-25.49,-20.89,8,,,,,0,0
COHM,7/5/94,-27.7837503,1.670089055,-30.33,-25.51,8,,,,,0,0
COHM,7/6/94,-31.47874999,0.725306793,-32.86,-30.41,8,,,,,0,0
COHM,7/7/94,-28.92499971,1.147593779,-30.26,-27.74,8,,,,,0,0
COHM,7/8/94,-27.75375032,1.394037754,-29.61,-25.93,8,,,,,0,0
COHM,7/9/94,-29.21749997,0.801868422,-30.86,-28.2,8,,,,,0,0
COHM,7/10/94,-36.06124973,1.901258134,-38.1,-33.04,8,,,,,0,0
COHM,7/11/94,-36.32374954,1.246170856,-37.89,-34.71,8,,,,,0,0
COHM,7/12/94,-32.56999993,2.521008524,-37.03,-29.51,8,,,,,0,0
COHM,7/13/94,-25.09375,3.272701186,-28.68,-19.89,8,,,,,0,0
COHM,7/14/94,-14.17874992,2.507397358,-18.11,-10.49,8,,,,,0,0
COHM,7/15/94,-7.352500081,1.098515379,-8.81,-5.82,8,,,,,0,0
COHM,7/16/94,-12.01499999,3.770520956,-17.51,-7.21,8,,,,,0,0
COHM,7/17/94,-20.9799999,3.156779793,-24.94,-15.11,8,,,,,0,0
COHM,7/18/94,-25.82500005,0.769173955,-26.92,-24.79,8,,,,,0,0
COHM,7/19/94,-25.0999999,2.034080935,-27.83,-23.09,8,,,,,0,0
COHM,7/20/94,-25.9912498,1.671905817,-27.56,-22.94,8,,,,,0,0
COHM,7/21/94,-28.57875013,1.102042642,-30.47,-26.9,8,,,,,0,0
COHM,7/22/94,-28.19875002,1.672043101,-30.53,-25.21,8,,,,,0,0
COHM,7/23/94,-26.15249991,0.68447602,-27.24,-24.97,8,,,,,0,0
COHM,7/24/94,-24.25874972,0.605555944,-25.49,-23.58,8,,,,,0,0
COHM,7/25/94,-28.92374969,1.335385936,-30.82,-27.22,8,,,,,0,0
COHM,7/26/94,-32.29874992,1.12873462,-33.79,-30.08,8,,,,,0,0
COHM,7/27/94,-28.92499971,4.578009395,-33.88,-20.78,8,,,,,0,0
COHM,7/28/94,-14.23625016,5.214057661,-23.39,-8.02,8,,,,,0,0
COHM,7/29/94,-14.37124991,5.891607866,-26.2,-7.42,8,,,,,0,0
COHM,7/30/94,-29.97874975,1.098809931,-32.03,-28.33,8,,,,,0,0
COHM,7/31/94,-32.45000005,2.280451105,-35.58,-28.29,8,,,,,0,0
COHM,8/1/94,-32.06000018,3.180502953,-36.62,-27.6,8,,,,,0,0
COHM,8/2/94,-27.78125,1.801280778,-29.67,-24.01,8,,,,,0,0
COHM,8/3/94,-26.07749987,1.882352591,-28.24,-22.64,8,,,,,0,0
COHM,8/4/94,-29.61750007,0.546410489,-30.51,-28.97,8,,,,,0,0
COHM,8/5/94,-31.22749996,1.146818871,-32.56,-29.05,8,,,,,0,0
COHM,8/6/94,-30.11750007,0.712355317,-30.84,-28.57,8,,,,,0,0
COHM,8/7/94,-22.99125004,1.647937835,-24.69,-20.66,8,,,,,0,0
COHM,8/8/94,-23.56375003,1.100232859,-25.05,-22.07,8,,,,,0,0
COHM,8/9/94,-25.71375012,2.340927069,-29.14,-23.53,8,,,,,0,0
COHM,8/10/94,-31.77250004,1.415745851,-33.96,-29.71,8,,,,,0,0
COHM,8/11/94,-34.22124958,0.455833077,-35.14,-33.55,8,,,,,0,0
COHM,8/12/94,-36.6449995,0.950473516,-38.28,-35.12,8,,,,,0,0
COHM,8/13/94,-37.49625015,0.932737268,-38.82,-36.13,8,,,,,0,0
COHM,8/14/94,-35.77250051,2.096757979,-38.58,-33.22,8,,,,,0,0
COHM,8/15/94,-30.39500022,2.392208176,-32.74,-26.13,8,,,,,0,0
COHM,8/16/94,-34.19125009,2.016053186,-37.2,-30.37,8,,,,,0,0
COHM,8/17/94,-34.93374968,0.532674165,-36.11,-34.44,8,,,,,0,0
COHM,8/18/94,-33.82250023,0.643977913,-34.81,-32.93,8,,,,,0,0
COHM,8/19/94,-31.16374993,0.587827512,-31.9,-30.47,8,,,,,0,0
COHM,8/20/94,-29.47374964,1.187036187,-30.61,-27.65,8,,,,,0,0
COHM,8/21/94,-31.93249989,0.972695151,-33.06,-29.84,8,,,,,0,0
COHM,8/22/94,-27.67250037,1.850743106,-31.19,-25.43,8,,,,,0,0
COHM,8/23/94,-31.31124973,0.866411894,-32.43,-29.96,8,,,,,0,0
COHM,8/24/94,-30.34500003,0.464481511,-31.09,-29.73,8,,,,,0,0
COHM,8/25/94,-24.19749999,3.43419721,-28.7,-19.73,8,,,,,0,0
COHM,8/26/94,-24.53500009,1.98032459,-27.94,-20.69,8,,,,,0,0
COHM,8/27/94,-28.45000005,0.732237015,-29.59,-27.35,8,,,,,0,0
COHM,8/28/94,-24.67875004,1.011242852,-26.03,-23.59,8,,,,,0,0
COHM,8/29/94,-16.5062499,3.210776149,-23.58,-14.43,8,,,,,0,0
COHM,8/30/94,-17.05999982,1.505883663,-19.16,-14.69,8,,,,,0,0
COHM,8/31/94,-15.7349999,0.876241774,-16.8,-14.04,8,,,,,0,0
COHM,9/1/94,-17.1025002,0.887753909,-18.19,-15.59,8,,,,,0,0
COHM,9/2/94,-23.29500008,1.27226436,-25.41,-21.78,8,,,,,0,0
COHM,9/3/94,-25.85000014,1.907818444,-29.18,-23.2,8,,,,,0,0
COHM,9/4/94,-29.40500021,1.511640926,-30.94,-26.8,8,,,,,0,0
COHM,9/5/94,-31.63750029,1.700468646,-33.79,-28,8,,,,,0,0
COHM,9/6/94,-36.80375004,0.84781929,-38.55,-35.63,8,,,,,0,0
COHM,9/7/94,-35.47999978,3.423436309,-37.95,-27.13,8,,,,,0,0
COHM,9/8/94,-27.3062501,7.626399182,-35.53,-17.54,8,,,,,0,0
COHM,9/9/94,-25.01249981,0.782916969,-25.84,-24.23,4,,,,,0,0
COHM,11/17/94,-9.561428524,1.21574538,-11.75,-6.28,42,,,,,0,1
COHM,11/18/94,-10.92791666,0.955573642,-12.9,-8.9,72,,,,,0,0
COHM,11/19/94,-11.22944446,0.774300054,-14.31,-8.82,72,,,,,0,0
COHM,11/20/94,-11.72652776,1.32195453,-13.73,-5.65,72,,,,,0,0
COHM,11/21/94,-12.61861108,0.919793771,-14.65,-10.65,72,,,,,0,0
COHM,11/22/94,-13.4898611,1.978827752,-16.82,-6.12,72,,,,,0,0
COHM,11/23/94,-12.67708323,1.554257587,-15.73,-10.58,72,,,,,0,0
COHM,11/24/94,-11.44069449,1.299382683,-14.6,-9.02,72,,,,,0,2
COHM,11/25/94,-9.359583391,2.376426132,-13.15,-4.22,72,,,,,0,1
COHM,11/26/94,-13.78583335,1.943753287,-16.48,-10.39,72,,,,,0,0
COHM,11/27/94,-13.75777782,1.433603953,-16.8,-11.06,72,,,,,0,0
COHM,11/28/94,-13.53805559,1.205225289,-16.65,-12.02,72,,,,,0,0
COHM,11/29/94,-12.86611103,0.717537965,-14.02,-10.5,72,,,,,0,0
COHM,11/30/94,-11.36166665,1.877327253,-14.12,-5.46,72,,,,,0,1
COHM,12/1/94,-10.32222221,1.2938067,-13.19,-7.41,72,,,,,0,0
COHM,12/2/94,-10.77916667,0.873222555,-12.63,-8.49,72,,,,,0,0
COHM,12/3/94,-8.137499955,2.117575497,-13.46,-5.36,72,,,,,0,0
COHM,12/4/94,-8.487638924,0.786207666,-10,-6.06,72,,,,,0,1
COHM,12/5/94,-7.887777752,0.958026439,-9.5,-5.98,72,,,,,0,0
COHM,12/6/94,-6.800833344,0.93812482,-8.9,-4.74,72,,,,,0,0
COHM,12/7/94,-6.883472224,0.810268894,-8.98,-5.46,72,,,,,0,0
COHM,12/8/94,-7.020972245,1.115072371,-9.9,-4.17,72,,,,,0,0
COHM,12/9/94,-4.513472223,1.396879963,-7.26,-0.93,72,,,,,0,0
COHM,12/10/94,-4.89736111,1.098744454,-7.67,-3.08,72,,,,,0,0
COHM,12/11/94,-4.774027824,1.336812159,-8.52,-2.27,72,,,,,0,0
COHM,12/12/94,-3.585138874,1.628932046,-6.2,-0.15,72,,,,,0,0
COHM,12/13/94,-4.097777778,1.321444183,-6.32,-0.8,72,,,,,0,0
COHM,12/14/94,-4.508749995,0.617746782,-5.74,-3.18,72,,,,,0,0
COHM,12/15/94,-3.42722223,1.204600608,-6.53,-1.02,72,,,,,0,0
COHM,12/16/94,-3.690972219,0.52582907,-4.68,-2.26,72,,,,,0,0
COHM,12/17/94,-3.927500008,0.666064205,-5.38,-1.61,72,,,,,0,0
COHM,12/18/94,-4.417222218,0.738657376,-6.02,-2.81,72,,,,,0,0
COHM,12/19/94,-4.955972228,1.224347689,-7.11,-1.25,72,,,,,0,0
COHM,12/20/94,-5.596388873,1.353588147,-8.36,-2.33,72,,,,,0,0
COHM,12/21/94,-7.922083378,0.858122653,-10.27,-6.51,72,,,,,0,0
COHM,12/22/94,-6.209305548,1.09446792,-7.99,-3.8,72,,,,,0,0
COHM,12/23/94,-7.311944432,0.938773,-8.61,-5.58,72,,,,,0,0
COHM,12/24/94,-6.25555555,1.297186405,-8.78,-1.5,72,,,,,0,0
COHM,12/25/94,-6.598750005,1.479330765,-8.55,-1.78,72,,,,,0,0
COHM,12/26/94,-6.23305558,1.705741466,-9.13,-1.35,72,,,,,0,0
COHM,12/27/94,-4.570555551,1.634033178,-7.61,-1.21,72,,,,,0,0
COHM,12/28/94,-3.320833322,1.357070941,-6.02,-0.27,72,,,,,0,0
COHM,12/29/94,-2.689027772,1.453445792,-5.5,1.16,72,,,,,0,0
COHM,12/30/94,-3.891944435,0.780069754,-6.34,-2.3,72,,,,,0,0
COHM,12/31/94,-3.892083353,0.556346055,-5.45,-2.98,72,,,,,0,0
COHM,1/1/95,-2.847638909,1.75015615,-6.34,1.07,72,,,,,0,0
COHM,1/2/95,-3.923749998,1.53084018,-7.36,-0.86,72,,,,,0,0
COHM,1/3/95,-7.833333333,0.45811928,-8.59,-6.95,72,,,,,0,0
COHM,1/4/95,-6.673611138,1.133345193,-8.42,-5.25,72,,,,,0,0
COHM,1/5/95,-6.357222219,0.963016406,-8.46,-3.7,72,,,,,0,0
COHM,1/6/95,-7.288611141,0.5645547,-8.18,-5.9,72,,,,,0,0
COHM,1/7/95,-5.574722234,1.68119762,-8.47,-2.71,72,,,,,0,0
COHM,1/8/95,-3.673472231,1.571612759,-6.84,-0.46,72,,,,,0,0
COHM,1/9/95,-3.311805553,1.403235025,-5.57,0.09,72,,,,,0,0
COHM,1/10/95,-2.824861104,1.280783202,-6.22,-0.92,72,,,,,0,0
COHM,1/11/95,-3.835694454,1.406495837,-7.5,-1.46,72,,,,,0,0
COHM,1/12/95,-6.127083341,1.220248697,-7.93,-4.32,72,,,,,0,0
COHM,1/13/95,-6.754166683,0.827311527,-8.1,-4.57,72,,,,,0,0
COHM,1/14/95,-6.172638887,1.238049295,-8.2,-4.01,72,,,,,0,0
COHM,1/15/95,-5.788611141,0.987866266,-7.82,-3.1,72,,,,,0,0
COHM,1/16/95,-5.668749995,1.332026895,-9,-3.33,72,,,,,0,0
COHM,1/17/95,-5.729722235,1.295884046,-9.01,-3.52,72,,,,,0,0
COHM,1/18/95,-6.801388893,1.231495522,-9.38,-5.29,72,,,,,0,0
COHM,1/19/95,-5.941388912,1.442638741,-9.3,-2.55,72,,,,,0,0
COHM,1/20/95,-6.071111103,0.933247497,-7.71,-4.06,72,,,,,0,0
COHM,1/21/95,-6.035000039,1.824086872,-9.87,-3.38,72,,,,,0,0
COHM,1/22/95,-5.215277791,1.270088161,-7.57,-1.54,72,,,,,0,0
COHM,1/23/95,-6.332463738,1.284910618,-9.33,-3.97,69,,,,,0,0
COHM,1/24/95,-7.057777756,0.932794097,-9.07,-5.1,72,,,,,0,0
COHM,1/25/95,-6.116527789,1.831437684,-8.85,-3.11,72,,,,,0,0
COHM,1/26/95,-6.621805549,1.231551562,-8.6,-3.36,72,,,,,0,0
COHM,1/27/95,-5.340833333,1.613794201,-8.07,-2.34,72,,,,,0,0
COHM,1/28/95,-7.353194409,0.883950472,-9.11,-6,72,,,,,0,0
COHM,1/29/95,-7.486249997,1.840319477,-10.93,-4.58,72,,,,,0,0
COHM,1/30/95,-6.933611095,2.054249691,-11.29,-3.31,72,,,,,0,0
COHM,1/31/95,-7.784722202,1.551881124,-10.51,-4.92,72,,,,,0,0
COHM,2/1/95,-4.431666649,2.043050035,-8.45,-1.3,72,,,,,0,0
COHM,2/2/95,-1.318888895,1.291077254,-5.53,2.1,72,,,,,0,0
COHM,2/3/95,-4.385000012,1.091316569,-7.4,-1.28,72,,,,,0,0
COHM,2/4/95,-7.252638891,1.747822765,-11.26,-1.35,72,,,,,0,0
COHM,2/5/95,-11.07916668,2.214147693,-15.33,-7.64,72,,,,,0,0
COHM,2/6/95,-6.759722216,3.292174181,-13.73,-3.04,72,,,,,0,0
COHM,2/7/95,-7.827638891,1.443670493,-11.1,-4.65,72,,,,,0,0
COHM,2/8/95,-7.723749982,1.030582293,-10.45,-5.24,72,,,,,0,0
COHM,2/9/95,-8.456805527,1.205412438,-11.28,-5.73,72,,,,,0,0
COHM,2/10/95,-10.69902776,0.865218612,-12.64,-9.06,72,,,,,0,0
COHM,2/11/95,-10.68611113,1.194193223,-13.59,-8.73,72,,,,,0,0
COHM,2/12/95,-11.15791668,1.986224342,-15.8,-6.79,72,,,,,0,0
COHM,2/13/95,-8.473194414,1.196698312,-11.82,-6.78,72,,,,,0,0
COHM,2/14/95,-12.9779167,0.957480428,-14.58,-10.21,72,,,,,0,0
COHM,2/15/95,-13.28402779,2.074024252,-16.66,-8.55,72,,,,,0,0
COHM,2/16/95,-15.07819443,2.481483717,-19.87,-10.86,72,,,,,0,0
COHM,2/17/95,-15.14638893,1.411981274,-18.66,-11.86,72,,,,,0,0